Time,TemperatureF,DewpointF,PressureIn,WindDirection,WindDirectionDegrees,WindSpeedMPH,WindSpeedGustMPH,Humidity,HourlyPrecipIn,Conditions,Clouds,dailyrainin,SoftwareType,DateUTC
2013-03-25 00:00:00,24.6,21.6,30.13,West,270,8.0,14.0,88,0.00,,---,0.02,VWS V14.01,2013-03-25 05:00:00,
2013-03-25 00:06:00,24.7,21.9,30.13,WNW,289,5.0,13.0,89,0.00,,---,0.00,VWS V14.01,2013-03-25 05:06:00,
2013-03-25 00:12:00,24.7,21.9,30.14,NW,324,8.0,14.0,89,0.00,,---,0.00,VWS V14.01,2013-03-25 05:12:00,
2013-03-25 00:18:00,24.9,22.1,30.14,WNW,292,6.0,14.0,89,0.00,,---,0.00,VWS V14.01,2013-03-25 05:18:00,
2013-03-25 00:24:00,24.9,22.1,30.14,NW,318,6.0,14.0,89,0.00,,---,0.00,VWS V14.01,2013-03-25 05:24:00,
2013-03-25 00:30:00,25.0,22.2,30.14,WNW,302,9.0,14.0,89,0.00,,---,0.00,VWS V14.01,2013-03-25 05:30:00,
2013-03-25 00:36:00,25.1,22.3,30.14,WNW,302,11.0,15.0,89,0.00,,---,0.00,VWS V14.01,2013-03-25 05:36:00,
2013-03-25 00:42:00,25.1,22.3,30.14,NW,314,13.0,15.0,89,0.00,,---,0.00,VWS V14.01,2013-03-25 05:42:00,
2013-03-25 00:48:00,25.1,22.3,30.14,NNW,348,6.0,15.0,89,0.00,,---,0.00,VWS V14.01,2013-03-25 05:48:00,
2013-03-25 00:54:00,25.1,22.3,30.14,NW,315,11.0,15.0,89,0.00,,---,0.00,VWS V14.01,2013-03-25 05:54:00,
2013-03-25 01:00:00,25.1,22.3,30.14,NW,320,6.0,16.0,89,0.00,,---,0.00,VWS V14.01,2013-03-25 06:00:00,
2013-03-25 01:06:00,25.1,22.3,30.14,WNW,303,6.0,17.0,89,0.00,,---,0.00,VWS V14.01,2013-03-25 06:06:00,
2013-03-25 01:12:00,25.1,22.3,30.14,NW,315,9.0,17.0,89,0.00,,---,0.00,VWS V14.01,2013-03-25 06:12:00,
2013-03-25 01:19:00,25.1,22.3,30.14,NW,322,12.0,18.0,89,0.00,,---,0.00,VWS V14.01,2013-03-25 06:19:00,
2013-03-25 01:25:00,25.1,22.3,30.14,NW,316,9.0,18.0,89,0.00,,---,0.00,VWS V14.01,2013-03-25 06:25:00,
2013-03-25 01:31:00,25.1,22.3,30.14,WNW,302,12.0,18.0,89,0.00,,---,0.00,VWS V14.01,2013-03-25 06:31:00,
2013-03-25 01:37:00,25.1,22.6,30.14,NW,314,12.0,12.0,90,0.00,,---,0.00,VWS V14.01,2013-03-25 06:37:00,
2013-03-25 01:43:00,25.1,22.3,30.14,WNW,287,6.0,13.0,89,0.00,,---,0.00,VWS V14.01,2013-03-25 06:43:00,
2013-03-25 01:49:00,25.2,22.7,30.14,NNW,328,7.0,15.0,90,0.00,,---,0.00,VWS V14.01,2013-03-25 06:49:00,
2013-03-25 01:55:00,25.2,22.7,30.14,NW,308,12.0,15.0,90,0.00,,---,0.00,VWS V14.01,2013-03-25 06:55:00,
2013-03-25 02:01:00,25.2,22.7,30.14,NW,314,15.0,15.0,90,0.00,,---,0.00,VWS V14.01,2013-03-25 07:01:00,
2013-03-25 02:07:00,25.3,22.8,30.14,NW,311,9.0,15.0,90,0.00,,---,0.00,VWS V14.01,2013-03-25 07:07:00,
2013-03-25 02:14:00,25.3,22.8,30.14,NW,309,6.0,15.0,90,0.00,,---,0.00,VWS V14.01,2013-03-25 07:14:00,
2013-03-25 02:20:00,25.3,22.8,30.15,WNW,291,5.0,15.0,90,0.00,,---,0.00,VWS V14.01,2013-03-25 07:20:00,
2013-03-25 02:26:00,25.4,22.9,30.15,NW,325,11.0,15.0,90,0.00,,---,0.00,VWS V14.01,2013-03-25 07:26:00,
2013-03-25 02:32:00,25.4,22.9,30.15,WNW,296,11.0,11.0,90,0.00,,---,0.00,VWS V14.01,2013-03-25 07:32:00,
2013-03-25 02:38:00,25.4,22.9,30.15,NNW,331,14.0,18.0,90,0.00,,---,0.00,VWS V14.01,2013-03-25 07:38:00,
2013-03-25 02:44:00,25.5,23.2,30.15,NW,323,10.0,18.0,91,0.00,,---,0.00,VWS V14.01,2013-03-25 07:44:00,
2013-03-25 02:50:00,25.5,23.2,30.15,NW,315,11.0,18.0,91,0.00,,---,0.00,VWS V14.01,2013-03-25 07:50:00,
2013-03-25 02:56:00,25.5,23.2,30.15,NNW,337,11.0,21.0,91,0.00,,---,0.00,VWS V14.01,2013-03-25 07:56:00,
2013-03-25 03:02:00,25.4,22.9,30.15,NNW,329,14.0,22.0,90,0.00,,---,0.00,VWS V14.01,2013-03-25 08:02:00,
2013-03-25 03:08:00,25.3,22.8,30.15,NNW,330,15.0,22.0,90,0.00,,---,0.00,VWS V14.01,2013-03-25 08:08:00,
2013-03-25 03:14:00,25.3,22.8,30.15,NW,307,5.0,22.0,90,0.00,,---,0.00,VWS V14.01,2013-03-25 08:14:00,
2013-03-25 03:20:00,25.2,22.7,30.16,NNW,336,5.0,23.0,90,0.00,,---,0.00,VWS V14.01,2013-03-25 08:20:00,
2013-03-25 03:26:00,25.0,22.5,30.16,NW,316,13.0,23.0,90,0.00,,---,0.00,VWS V14.01,2013-03-25 08:26:00,
2013-03-25 03:32:00,24.8,22.3,30.16,NW,308,16.0,17.0,90,0.00,,---,0.00,VWS V14.01,2013-03-25 08:32:00,
2013-03-25 03:39:00,24.6,22.1,30.16,WNW,300,7.0,20.0,90,0.00,,---,0.00,VWS V14.01,2013-03-25 08:39:00,
2013-03-25 03:45:00,24.5,22.0,30.16,NW,310,8.0,20.0,90,0.00,,---,0.00,VWS V14.01,2013-03-25 08:45:00,
2013-03-25 03:53:00,24.4,21.9,30.16,NNW,327,10.0,20.0,90,0.00,,---,0.00,VWS V14.01,2013-03-25 08:53:00,
2013-03-25 03:59:00,24.4,21.9,30.16,NW,309,7.0,20.0,90,0.00,,---,0.00,VWS V14.01,2013-03-25 08:59:00,
2013-03-25 04:05:00,24.3,21.8,30.16,WNW,303,11.0,21.0,90,0.00,,---,0.00,VWS V14.01,2013-03-25 09:05:00,
2013-03-25 04:11:00,24.2,21.4,30.16,NW,323,5.0,21.0,89,0.00,,---,0.00,VWS V14.01,2013-03-25 09:11:00,
2013-03-25 04:17:00,24.2,21.4,30.16,West,281,8.0,21.0,89,0.00,,---,0.00,VWS V14.01,2013-03-25 09:17:00,
2013-03-25 04:23:00,24.2,21.4,30.16,NW,314,12.0,21.0,89,0.00,,---,0.00,VWS V14.01,2013-03-25 09:23:00,
2013-03-25 04:29:00,24.2,21.4,30.16,NW,319,21.0,21.0,89,0.00,,---,0.00,VWS V14.01,2013-03-25 09:29:00,
2013-03-25 04:35:00,24.1,21.3,30.17,NNW,340,9.0,22.0,89,0.00,,---,0.00,VWS V14.01,2013-03-25 09:35:00,
2013-03-25 04:41:00,24.1,21.3,30.17,NW,312,25.0,25.0,89,0.00,,---,0.00,VWS V14.01,2013-03-25 09:41:00,
2013-03-25 04:48:00,24.1,21.1,30.17,NW,310,8.0,25.0,88,0.00,,---,0.00,VWS V14.01,2013-03-25 09:48:00,
2013-03-25 04:54:00,24.1,21.1,30.17,NNW,336,8.0,25.0,88,0.00,,---,0.00,VWS V14.01,2013-03-25 09:54:00,
2013-03-25 05:00:00,24.2,20.9,30.18,NW,321,18.0,28.0,87,0.00,,---,0.00,VWS V14.01,2013-03-25 10:00:00,
2013-03-25 05:08:00,24.2,20.6,30.18,NW,310,16.0,21.0,86,0.00,,---,0.00,VWS V14.01,2013-03-25 10:08:00,
2013-03-25 05:14:00,24.3,20.7,30.18,NW,321,14.0,22.0,86,0.00,,---,0.00,VWS V14.01,2013-03-25 10:14:00,
2013-03-25 05:20:00,24.3,20.7,30.18,NW,322,18.0,22.0,86,0.00,,---,0.00,VWS V14.01,2013-03-25 10:20:00,
2013-03-25 05:26:00,24.3,20.7,30.18,WNW,287,10.0,22.0,86,0.00,,---,0.00,VWS V14.01,2013-03-25 10:26:00,
2013-03-25 05:32:00,24.2,20.4,30.18,NW,318,10.0,16.0,85,0.00,,---,0.00,VWS V14.01,2013-03-25 10:32:00,
2013-03-25 05:39:00,24.2,20.4,30.18,WNW,303,7.0,20.0,85,0.00,,---,0.00,VWS V14.01,2013-03-25 10:39:00,
2013-03-25 05:45:00,24.1,20.0,30.19,NW,316,11.0,21.0,84,0.00,,---,0.00,VWS V14.01,2013-03-25 10:45:00,
2013-03-25 05:51:00,24.0,19.9,30.19,NW,304,15.0,21.0,84,0.00,,---,0.00,VWS V14.01,2013-03-25 10:51:00,
2013-03-25 05:57:00,23.9,19.5,30.19,WNW,302,6.0,21.0,83,0.00,,---,0.00,VWS V14.01,2013-03-25 10:57:00,
2013-03-25 06:03:00,23.9,19.5,30.19,NW,319,15.0,19.0,83,0.00,,---,0.00,VWS V14.01,2013-03-25 11:03:00,
2013-03-25 06:09:00,23.8,19.4,30.19,NW,322,12.0,24.0,83,0.00,,---,0.00,VWS V14.01,2013-03-25 11:09:00,
2013-03-25 06:15:00,23.8,19.1,30.19,WNW,298,13.0,24.0,82,0.00,,---,0.00,VWS V14.01,2013-03-25 11:15:00,
2013-03-25 06:21:00,23.8,19.1,30.19,NW,321,14.0,24.0,82,0.00,,---,0.00,VWS V14.01,2013-03-25 11:21:00,
2013-03-25 06:27:00,23.7,19.0,30.19,NW,326,10.0,24.0,82,0.00,,---,0.00,VWS V14.01,2013-03-25 11:27:00,
2013-03-25 06:33:00,23.7,19.0,30.19,NW,309,9.0,22.0,82,0.00,,---,0.00,VWS V14.01,2013-03-25 11:33:00,
2013-03-25 06:39:00,23.7,19.0,30.20,WNW,302,9.0,22.0,82,0.00,,---,0.00,VWS V14.01,2013-03-25 11:39:00,
2013-03-25 06:45:00,23.7,19.0,30.20,NW,309,14.0,22.0,82,0.00,,---,0.00,VWS V14.01,2013-03-25 11:45:00,
2013-03-25 06:51:00,23.7,19.0,30.20,NW,306,11.0,25.0,82,0.00,,---,0.00,VWS V14.01,2013-03-25 11:51:00,
2013-03-25 06:57:00,23.7,18.7,30.20,NW,313,17.0,26.0,81,0.00,,---,0.00,VWS V14.01,2013-03-25 11:57:00,
2013-03-25 07:04:00,23.7,19.0,30.20,NW,304,10.0,16.0,82,0.00,,---,0.00,VWS V14.01,2013-03-25 12:04:00,
2013-03-25 07:10:00,23.8,19.1,30.21,NNW,327,12.0,23.0,82,0.00,,---,0.00,VWS V14.01,2013-03-25 12:10:00,
2013-03-25 07:16:00,23.8,19.1,30.21,West,261,11.0,23.0,82,0.00,,---,0.00,VWS V14.01,2013-03-25 12:16:00,
2013-03-25 07:22:00,23.8,19.4,30.21,WNW,284,10.0,23.0,83,0.00,,---,0.00,VWS V14.01,2013-03-25 12:22:00,
2013-03-25 07:28:00,23.7,19.6,30.22,NW,312,13.0,23.0,84,0.00,,---,0.00,VWS V14.01,2013-03-25 12:28:00,
2013-03-25 07:34:00,23.6,19.8,30.22,NW,312,13.0,21.0,85,0.00,,---,0.00,VWS V14.01,2013-03-25 12:34:00,
2013-03-25 07:40:00,23.4,19.8,30.22,West,281,9.0,21.0,86,0.00,,---,0.00,VWS V14.01,2013-03-25 12:40:00,
2013-03-25 07:46:00,23.4,19.8,30.22,NW,319,12.0,21.0,86,0.00,,---,0.00,VWS V14.01,2013-03-25 12:46:00,
2013-03-25 07:52:00,23.3,20.0,30.22,NW,306,9.0,21.0,87,0.00,,---,0.00,VWS V14.01,2013-03-25 12:52:00,
2013-03-25 07:58:00,23.3,20.0,30.22,WNW,296,11.0,21.0,87,0.00,,---,0.00,VWS V14.01,2013-03-25 12:58:00,
2013-03-25 08:05:00,23.2,20.2,30.23,NW,314,12.0,17.0,88,0.00,,---,0.00,VWS V14.01,2013-03-25 13:05:00,
2013-03-25 08:13:00,23.2,20.2,30.23,NW,310,14.0,18.0,88,0.00,,---,0.00,VWS V14.01,2013-03-25 13:13:00,
2013-03-25 08:19:00,23.3,20.3,30.23,West,274,12.0,18.0,88,0.00,,---,0.00,VWS V14.01,2013-03-25 13:19:00,
2013-03-25 08:25:00,23.3,20.3,30.23,WNW,295,14.0,18.0,88,0.00,,---,0.00,VWS V14.01,2013-03-25 13:25:00,
2013-03-25 08:31:00,23.4,20.4,30.23,NW,319,5.0,18.0,88,0.00,,---,0.00,VWS V14.01,2013-03-25 13:31:00,
2013-03-25 08:37:00,23.5,20.5,30.24,WNW,294,15.0,17.0,88,0.00,,---,0.00,VWS V14.01,2013-03-25 13:37:00,
2013-03-25 08:43:00,23.6,20.6,30.24,NW,315,14.0,19.0,88,0.00,,---,0.00,VWS V14.01,2013-03-25 13:43:00,
2013-03-25 08:49:00,23.8,20.8,30.24,WNW,288,10.0,19.0,88,0.00,,---,0.00,VWS V14.01,2013-03-25 13:49:00,
2013-03-25 08:56:00,23.9,20.9,30.24,NW,310,7.0,19.0,88,0.00,,---,0.00,VWS V14.01,2013-03-25 13:56:00,
2013-03-25 09:02:00,24.0,21.0,30.24,NW,309,14.0,24.0,88,0.00,,---,0.00,VWS V14.01,2013-03-25 14:02:00,
2013-03-25 09:08:00,24.2,21.2,30.24,NW,321,14.0,24.0,88,0.00,,---,0.00,VWS V14.01,2013-03-25 14:08:00,
2013-03-25 09:14:00,24.3,21.3,30.24,NW,307,7.0,24.0,88,0.00,,---,0.00,VWS V14.01,2013-03-25 14:14:00,
2013-03-25 09:20:00,24.4,21.4,30.25,NW,319,8.0,24.0,88,0.00,,---,0.00,VWS V14.01,2013-03-25 14:20:00,
2013-03-25 09:28:00,24.4,21.4,30.25,NW,304,8.0,24.0,88,0.00,,---,0.00,VWS V14.01,2013-03-25 14:28:00,
2013-03-25 09:34:00,24.5,21.5,30.25,NW,318,17.0,18.0,88,0.00,,---,0.00,VWS V14.01,2013-03-25 14:34:00,
2013-03-25 09:40:00,24.5,21.5,30.25,NNW,330,7.0,19.0,88,0.00,,---,0.00,VWS V14.01,2013-03-25 14:40:00,
2013-03-25 09:46:00,24.6,21.6,30.25,NNW,340,10.0,19.0,88,0.00,,---,0.00,VWS V14.01,2013-03-25 14:46:00,
2013-03-25 09:52:00,24.8,21.8,30.25,NW,325,3.0,19.0,88,0.00,,---,0.00,VWS V14.01,2013-03-25 14:52:00,
2013-03-25 09:59:00,24.9,21.9,30.25,NNW,328,23.0,23.0,88,0.00,,---,0.00,VWS V14.01,2013-03-25 14:59:00,
2013-03-25 10:05:00,24.8,21.5,30.26,NNW,329,18.0,25.0,87,0.00,,---,0.00,VWS V14.01,2013-03-25 15:05:00,
2013-03-25 10:13:00,24.9,21.9,30.26,NW,321,10.0,25.0,88,0.00,,---,0.00,VWS V14.01,2013-03-25 15:13:00,
2013-03-25 10:19:00,24.9,21.6,30.26,NNW,348,14.0,25.0,87,0.00,,---,0.00,VWS V14.01,2013-03-25 15:19:00,
2013-03-25 10:25:00,25.2,22.1,30.26,NW,309,8.0,25.0,88,0.00,,---,0.00,VWS V14.01,2013-03-25 15:25:00,
2013-03-25 10:36:00,25.6,22.5,30.27,NNW,341,18.0,18.0,88,0.00,,---,0.00,VWS V14.01,2013-03-25 15:36:00,
2013-03-25 10:43:00,25.6,22.3,30.27,NNW,327,10.0,22.0,87,0.00,,---,0.00,VWS V14.01,2013-03-25 15:43:00,
2013-03-25 10:49:00,25.7,22.4,30.27,WNW,291,11.0,22.0,87,0.00,,---,0.00,VWS V14.01,2013-03-25 15:49:00,
2013-03-25 10:55:00,25.9,22.6,30.27,NW,319,10.0,22.0,87,0.00,,---,0.00,VWS V14.01,2013-03-25 15:55:00,
2013-03-25 11:01:00,26.1,22.8,30.27,NW,319,11.0,22.0,87,0.00,,---,0.00,VWS V14.01,2013-03-25 16:01:00,
2013-03-25 11:07:00,26.2,22.6,30.28,NW,323,15.0,21.0,86,0.00,,---,0.00,VWS V14.01,2013-03-25 16:07:00,
2013-03-25 11:13:00,26.2,22.6,30.28,NW,317,17.0,21.0,86,0.00,,---,0.00,VWS V14.01,2013-03-25 16:13:00,
2013-03-25 11:19:00,26.5,22.9,30.28,WNW,288,10.0,21.0,86,0.00,,---,0.00,VWS V14.01,2013-03-25 16:19:00,
2013-03-25 11:25:00,26.7,23.1,30.29,WNW,298,9.0,21.0,86,0.00,,---,0.00,VWS V14.01,2013-03-25 16:25:00,
2013-03-25 11:31:00,26.8,23.2,30.28,NNW,331,7.0,21.0,86,0.00,,---,0.00,VWS V14.01,2013-03-25 16:31:00,
2013-03-25 11:37:00,27.2,23.6,30.29,NW,310,17.0,19.0,86,0.00,,---,0.00,VWS V14.01,2013-03-25 16:37:00,
2013-03-25 11:43:00,27.1,23.2,30.29,NW,320,14.0,24.0,85,0.00,,---,0.00,VWS V14.01,2013-03-25 16:43:00,
2013-03-25 11:50:00,27.2,23.3,30.29,NW,314,9.0,24.0,85,0.00,,---,0.00,VWS V14.01,2013-03-25 16:50:00,
2013-03-25 11:58:00,27.4,23.5,30.29,NNW,327,14.0,24.0,85,0.01,,---,0.01,VWS V14.01,2013-03-25 16:58:00,
2013-03-25 12:04:00,27.4,23.5,30.29,NNW,333,22.0,22.0,85,0.01,,---,0.01,VWS V14.01,2013-03-25 17:04:00,
2013-03-25 12:10:00,27.4,23.5,30.29,NW,322,9.0,22.0,85,0.01,,---,0.01,VWS V14.01,2013-03-25 17:10:00,
2013-03-25 12:16:00,27.7,23.8,30.30,NW,308,10.0,22.0,85,0.01,,---,0.01,VWS V14.01,2013-03-25 17:16:00,
2013-03-25 12:22:00,27.8,23.6,30.30,NW,315,13.0,22.0,84,0.02,,---,0.02,VWS V14.01,2013-03-25 17:22:00,
2013-03-25 12:28:00,27.9,24.0,30.30,NW,319,12.0,22.0,85,0.02,,---,0.02,VWS V14.01,2013-03-25 17:28:00,
2013-03-25 12:34:00,27.8,23.6,30.30,NNW,327,14.0,20.0,84,0.02,,---,0.02,VWS V14.01,2013-03-25 17:34:00,
2013-03-25 12:41:00,27.6,23.4,30.30,NNW,331,8.0,20.0,84,0.02,,---,0.02,VWS V14.01,2013-03-25 17:41:00,
2013-03-25 12:47:00,27.8,23.6,30.30,NW,322,7.0,20.0,84,0.02,,---,0.02,VWS V14.01,2013-03-25 17:47:00,
2013-03-25 12:53:00,27.9,23.4,30.30,NW,313,10.0,20.0,83,0.02,,---,0.02,VWS V14.01,2013-03-25 17:53:00,
2013-03-25 12:59:00,27.8,23.3,30.30,NNW,328,13.0,20.0,83,0.02,,---,0.02,VWS V14.01,2013-03-25 17:59:00,
2013-03-25 13:05:00,27.8,23.3,30.30,NW,322,12.0,18.0,83,0.01,,---,0.02,VWS V14.01,2013-03-25 18:05:00,
2013-03-25 13:13:00,28.1,23.6,30.30,NNW,331,8.0,18.0,83,0.01,,---,0.02,VWS V14.01,2013-03-25 18:13:00,
2013-03-25 13:19:00,28.3,23.8,30.30,WNW,284,9.0,18.0,83,0.01,,---,0.02,VWS V14.01,2013-03-25 18:19:00,
2013-03-25 13:25:00,28.7,23.9,30.30,NW,317,11.0,18.0,82,0.01,,---,0.02,VWS V14.01,2013-03-25 18:25:00,
2013-03-25 13:31:00,28.6,23.5,30.30,WNW,296,8.0,21.0,81,0.01,,---,0.02,VWS V14.01,2013-03-25 18:31:00,
2013-03-25 13:36:00,28.5,23.7,30.30,NW,315,12.0,17.0,82,0.00,,---,0.02,VWS V14.01,2013-03-25 18:36:00,
2013-03-25 13:42:00,28.6,23.5,30.30,NW,315,8.0,21.0,81,0.00,,---,0.02,VWS V14.01,2013-03-25 18:42:00,
2013-03-25 13:48:00,28.6,23.5,30.30,NW,318,11.0,21.0,81,0.00,,---,0.02,VWS V14.01,2013-03-25 18:48:00,
2013-03-25 13:54:00,28.5,23.4,30.30,NNW,327,15.0,21.0,81,0.00,,---,0.02,VWS V14.01,2013-03-25 18:54:00,
2013-03-25 14:00:00,28.6,23.5,30.30,WNW,294,6.0,21.0,81,0.00,,---,0.02,VWS V14.01,2013-03-25 19:00:00,
2013-03-25 14:06:00,28.8,23.4,30.30,WNW,300,6.0,18.0,80,0.00,,---,0.02,VWS V14.01,2013-03-25 19:06:00,
2013-03-25 14:12:00,28.7,23.3,30.30,NW,323,11.0,19.0,80,0.00,,---,0.02,VWS V14.01,2013-03-25 19:12:00,
2013-03-25 14:18:00,28.6,22.9,30.30,NW,309,9.0,19.0,79,0.00,,---,0.02,VWS V14.01,2013-03-25 19:18:00,
2013-03-25 14:25:00,28.7,23.0,30.31,NW,315,10.0,19.0,79,0.00,,---,0.02,VWS V14.01,2013-03-25 19:25:00,
2013-03-25 14:31:00,28.8,23.1,30.30,NW,319,10.0,19.0,79,0.00,,---,0.02,VWS V14.01,2013-03-25 19:31:00,
2013-03-25 14:37:00,29.0,23.3,30.30,WNW,303,15.0,15.0,79,0.00,,---,0.02,VWS V14.01,2013-03-25 19:37:00,
2013-03-25 14:43:00,29.2,23.2,30.30,WNW,288,6.0,17.0,78,0.00,,---,0.02,VWS V14.01,2013-03-25 19:43:00,
2013-03-25 14:49:00,29.5,23.2,30.30,NW,308,12.0,17.0,77,0.00,,---,0.02,VWS V14.01,2013-03-25 19:49:00,
2013-03-25 14:55:00,29.7,23.1,30.30,NW,319,7.0,18.0,76,0.00,,---,0.02,VWS V14.01,2013-03-25 19:55:00,
2013-03-25 15:01:00,29.9,23.3,30.30,NW,309,8.0,18.0,76,0.00,,---,0.02,VWS V14.01,2013-03-25 20:01:00,
2013-03-25 15:07:00,30.0,22.4,30.30,NW,319,16.0,20.0,73,0.00,,---,0.02,VWS V14.01,2013-03-25 20:07:00,
2013-03-25 15:14:00,30.1,22.2,30.30,NW,307,15.0,20.0,72,0.00,,---,0.02,VWS V14.01,2013-03-25 20:14:00,
2013-03-25 15:20:00,29.9,21.7,30.30,North,350,10.0,20.0,71,0.00,,---,0.02,VWS V14.01,2013-03-25 20:20:00,
2013-03-25 15:26:00,29.9,21.7,30.30,NW,318,16.0,21.0,71,0.00,,---,0.02,VWS V14.01,2013-03-25 20:26:00,
2013-03-25 15:32:00,29.7,21.1,30.30,NNW,330,17.0,19.0,70,0.00,,---,0.02,VWS V14.01,2013-03-25 20:32:00,
2013-03-25 15:38:00,29.4,21.5,30.30,NNW,337,12.0,19.0,72,0.00,,---,0.02,VWS V14.01,2013-03-25 20:38:00,
2013-03-25 15:44:00,29.3,21.7,30.30,North,10,10.0,19.0,73,0.00,,---,0.02,VWS V14.01,2013-03-25 20:44:00,
2013-03-25 15:50:00,29.9,22.0,30.30,West,281,12.0,19.0,72,0.00,,---,0.02,VWS V14.01,2013-03-25 20:50:00,
2013-03-25 15:56:00,30.3,22.0,30.30,NNW,336,11.0,19.0,71,0.00,,---,0.02,VWS V14.01,2013-03-25 20:56:00,
2013-03-25 16:02:00,30.2,21.3,30.30,NW,319,13.0,20.0,69,0.00,,---,0.02,VWS V14.01,2013-03-25 21:02:00,
2013-03-25 16:08:00,29.9,21.0,30.31,WNW,300,6.0,20.0,69,0.00,,---,0.02,VWS V14.01,2013-03-25 21:08:00,
2013-03-25 16:14:00,29.8,20.9,30.31,WNW,298,3.0,20.0,69,0.00,,---,0.02,VWS V14.01,2013-03-25 21:14:00,
2013-03-25 16:20:00,29.9,21.0,30.31,NW,312,5.0,20.0,69,0.00,,---,0.02,VWS V14.01,2013-03-25 21:20:00,
2013-03-25 16:29:00,29.9,21.7,30.31,NW,305,14.0,20.0,71,0.00,,---,0.02,VWS V14.01,2013-03-25 21:29:00,
2013-03-25 16:35:00,29.6,21.4,30.31,WNW,289,10.0,17.0,71,0.01,,---,0.03,VWS V14.01,2013-03-25 21:35:00,
2013-03-25 16:41:00,29.5,21.3,30.31,NW,323,10.0,21.0,71,0.01,,---,0.03,VWS V14.01,2013-03-25 21:41:00,
2013-03-25 16:47:00,29.5,21.3,30.31,NNW,332,15.0,21.0,71,0.01,,---,0.03,VWS V14.01,2013-03-25 21:47:00,
2013-03-25 16:53:00,29.4,21.2,30.31,WNW,294,13.0,21.0,71,0.01,,---,0.03,VWS V14.01,2013-03-25 21:53:00,
2013-03-25 16:59:00,29.1,21.2,30.32,WNW,295,8.0,21.0,72,0.01,,---,0.03,VWS V14.01,2013-03-25 21:59:00,
2013-03-25 17:05:00,28.9,21.4,30.32,WNW,291,8.0,16.0,73,0.01,,---,0.03,VWS V14.01,2013-03-25 22:05:00,
2013-03-25 17:11:00,28.9,21.7,30.32,WNW,299,10.0,16.0,74,0.01,,---,0.03,VWS V14.01,2013-03-25 22:11:00,
2013-03-25 17:17:00,28.9,21.4,30.32,WNW,300,5.0,16.0,73,0.01,,---,0.03,VWS V14.01,2013-03-25 22:17:00,
2013-03-25 17:23:00,28.8,21.9,30.32,WNW,295,8.0,20.0,75,0.01,,---,0.03,VWS V14.01,2013-03-25 22:23:00,
2013-03-25 17:29:00,28.7,21.8,30.32,NW,325,15.0,20.0,75,0.01,,---,0.03,VWS V14.01,2013-03-25 22:29:00,
2013-03-25 17:35:00,28.6,21.7,30.32,NW,321,13.0,18.0,75,0.00,,---,0.03,VWS V14.01,2013-03-25 22:35:00,
2013-03-25 17:41:00,28.5,21.6,30.32,NW,315,15.0,18.0,75,0.00,,---,0.03,VWS V14.01,2013-03-25 22:41:00,
2013-03-25 17:48:00,28.6,21.7,30.32,NW,306,12.0,18.0,75,0.00,,---,0.03,VWS V14.01,2013-03-25 22:48:00,
2013-03-25 17:54:00,28.6,21.7,30.33,WNW,285,6.0,18.0,75,0.00,,---,0.03,VWS V14.01,2013-03-25 22:54:00,
2013-03-25 18:00:00,28.6,21.7,30.33,NW,319,10.0,18.0,75,0.00,,---,0.03,VWS V14.01,2013-03-25 23:00:00,
2013-03-25 18:06:00,28.5,21.6,30.33,NW,322,7.0,16.0,75,0.00,,---,0.03,VWS V14.01,2013-03-25 23:06:00,
2013-03-25 18:12:00,28.4,21.5,30.33,NW,317,12.0,18.0,75,0.00,,---,0.03,VWS V14.01,2013-03-25 23:12:00,
2013-03-25 18:18:00,28.3,21.7,30.33,NW,307,12.0,18.0,76,0.00,,---,0.03,VWS V14.01,2013-03-25 23:18:00,
2013-03-25 18:24:00,28.1,21.5,30.33,West,277,4.0,21.0,76,0.00,,---,0.03,VWS V14.01,2013-03-25 23:24:00,
2013-03-25 18:30:00,28.0,21.4,30.34,NW,317,13.0,21.0,76,0.00,,---,0.03,VWS V14.01,2013-03-25 23:30:00,
2013-03-25 18:36:00,27.9,21.6,30.34,NW,325,5.0,13.0,77,0.00,,---,0.03,VWS V14.01,2013-03-25 23:36:00,
2013-03-25 18:42:00,27.8,21.5,30.34,NW,323,7.0,15.0,77,0.00,,---,0.03,VWS V14.01,2013-03-25 23:42:00,
2013-03-25 18:48:00,27.7,21.8,30.34,WNW,303,5.0,15.0,78,0.00,,---,0.03,VWS V14.01,2013-03-25 23:48:00,
2013-03-25 18:54:00,27.6,21.6,30.34,WNW,297,6.0,17.0,78,0.00,,---,0.03,VWS V14.01,2013-03-25 23:54:00,
2013-03-25 19:01:00,27.5,21.9,30.34,NW,313,6.0,17.0,79,0.00,,---,0.03,VWS V14.01,2013-03-26 00:01:00,
2013-03-25 19:07:00,27.4,21.8,30.35,NW,309,4.0,12.0,79,0.00,,---,0.03,VWS V14.01,2013-03-26 00:07:00,
2013-03-25 19:13:00,27.2,21.6,30.35,NW,306,10.0,14.0,79,0.00,,---,0.03,VWS V14.01,2013-03-26 00:13:00,
2013-03-25 19:19:00,27.1,21.8,30.35,NW,315,4.0,14.0,80,0.00,,---,0.03,VWS V14.01,2013-03-26 00:19:00,
2013-03-25 19:25:00,27.0,22.0,30.35,NW,319,8.0,14.0,81,0.00,,---,0.03,VWS V14.01,2013-03-26 00:25:00,
2013-03-25 19:31:00,27.0,22.0,30.35,NW,313,5.0,14.0,81,0.00,,---,0.03,VWS V14.01,2013-03-26 00:31:00,
2013-03-25 19:37:00,27.0,22.0,30.35,WNW,297,3.0,12.0,81,0.00,,---,0.03,VWS V14.01,2013-03-26 00:37:00,
2013-03-25 19:44:00,26.9,21.9,30.35,NW,312,7.0,16.0,81,0.00,,---,0.03,VWS V14.01,2013-03-26 00:44:00,
2013-03-25 19:50:00,26.8,21.8,30.36,NW,304,13.0,16.0,81,0.00,,---,0.03,VWS V14.01,2013-03-26 00:50:00,
2013-03-25 19:56:00,26.7,21.4,30.36,NW,308,5.0,16.0,80,0.00,,---,0.03,VWS V14.01,2013-03-26 00:56:00,
2013-03-25 20:02:00,26.7,21.4,30.36,NW,304,6.0,12.0,80,0.00,,---,0.03,VWS V14.01,2013-03-26 01:02:00,
2013-03-25 20:08:00,26.6,21.3,30.36,NW,319,7.0,12.0,80,0.00,,---,0.03,VWS V14.01,2013-03-26 01:08:00,
2013-03-25 20:14:00,26.6,21.3,30.36,WNW,299,5.0,13.0,80,0.00,,---,0.03,VWS V14.01,2013-03-26 01:14:00,
2013-03-25 20:20:00,26.6,21.6,30.36,NW,316,8.0,13.0,81,0.00,,---,0.03,VWS V14.01,2013-03-26 01:20:00,
2013-03-25 20:26:00,26.6,21.6,30.36,WNW,299,8.0,13.0,81,0.00,,---,0.03,VWS V14.01,2013-03-26 01:26:00,
2013-03-25 20:32:00,26.6,21.3,30.36,WNW,300,6.0,6.0,80,0.00,,---,0.03,VWS V14.01,2013-03-26 01:32:00,
2013-03-25 20:38:00,26.6,21.3,30.36,WNW,298,4.0,14.0,80,0.00,,---,0.03,VWS V14.01,2013-03-26 01:38:00,
2013-03-25 20:44:00,26.6,21.3,30.36,WNW,303,9.0,15.0,80,0.00,,---,0.03,VWS V14.01,2013-03-26 01:44:00,
2013-03-25 20:51:00,26.6,21.3,30.36,WNW,291,6.0,17.0,80,0.00,,---,0.03,VWS V14.01,2013-03-26 01:51:00,
2013-03-25 20:57:00,26.5,21.2,30.36,WNW,291,5.0,18.0,80,0.00,,---,0.03,VWS V14.01,2013-03-26 01:57:00,
2013-03-25 21:03:00,26.5,21.2,30.36,NW,306,4.0,10.0,80,0.00,,---,0.03,VWS V14.01,2013-03-26 02:03:00,
2013-03-25 21:09:00,26.5,21.2,30.37,NW,309,5.0,12.0,80,0.00,,---,0.03,VWS V14.01,2013-03-26 02:09:00,
2013-03-25 21:15:00,26.5,21.2,30.37,West,276,9.0,13.0,80,0.00,,---,0.03,VWS V14.01,2013-03-26 02:15:00,
2013-03-25 21:21:00,26.4,21.1,30.37,West,263,3.0,13.0,80,0.00,,---,0.03,VWS V14.01,2013-03-26 02:21:00,
2013-03-25 21:27:00,26.4,21.1,30.37,West,281,7.0,13.0,80,0.00,,---,0.03,VWS V14.01,2013-03-26 02:27:00,
2013-03-25 21:33:00,26.3,20.7,30.37,WNW,297,4.0,8.0,79,0.00,,---,0.03,VWS V14.01,2013-03-26 02:33:00,
2013-03-25 21:39:00,26.2,20.6,30.37,WNW,290,7.0,10.0,79,0.00,,---,0.03,VWS V14.01,2013-03-26 02:39:00,
2013-03-25 21:45:00,26.0,20.1,30.38,NW,311,3.0,12.0,78,0.00,,---,0.03,VWS V14.01,2013-03-26 02:45:00,
2013-03-25 21:51:00,25.7,19.8,30.38,NW,311,6.0,12.0,78,0.00,,---,0.03,VWS V14.01,2013-03-26 02:51:00,
2013-03-25 21:58:00,25.4,19.8,30.38,NW,307,10.0,13.0,79,0.00,,---,0.03,VWS V14.01,2013-03-26 02:58:00,
2013-03-25 22:04:00,25.2,19.6,30.38,NW,309,8.0,10.0,79,0.00,,---,0.03,VWS V14.01,2013-03-26 03:04:00,
2013-03-25 22:10:00,24.9,19.3,30.38,WNW,288,5.0,10.0,79,0.00,,---,0.03,VWS V14.01,2013-03-26 03:10:00,
2013-03-25 22:16:00,24.7,19.1,30.38,WNW,301,7.0,10.0,79,0.00,,---,0.03,VWS V14.01,2013-03-26 03:16:00,
2013-03-25 22:22:00,24.4,18.8,30.38,WNW,300,3.0,10.0,79,0.00,,---,0.03,VWS V14.01,2013-03-26 03:22:00,
2013-03-25 22:28:00,24.1,18.5,30.39,WNW,282,3.0,10.0,79,0.00,,---,0.03,VWS V14.01,2013-03-26 03:28:00,
2013-03-25 22:34:00,23.8,18.2,30.39,NW,306,4.0,7.0,79,0.00,,---,0.03,VWS V14.01,2013-03-26 03:34:00,
2013-03-25 22:40:00,23.5,18.2,30.39,WNW,294,6.0,7.0,80,0.00,,---,0.03,VWS V14.01,2013-03-26 03:40:00,
2013-03-25 22:46:00,23.3,18.1,30.39,WNW,298,5.0,7.0,80,0.00,,---,0.03,VWS V14.01,2013-03-26 03:46:00,
2013-03-25 22:52:00,23.1,17.9,30.39,WNW,303,5.0,7.0,80,0.00,,---,0.03,VWS V14.01,2013-03-26 03:52:00,
2013-03-25 22:58:00,22.9,17.7,30.39,WNW,294,3.0,7.0,80,0.00,,---,0.03,VWS V14.01,2013-03-26 03:58:00,
2013-03-25 23:00:00,22.8,17.6,30.39,WNW,290,3.0,7.0,80,0.00,,---,0.03,VWS V14.01,2013-03-26 04:00:00,
2013-03-25 23:02:00,22.7,17.5,30.39,WNW,290,2.0,4.0,80,0.00,,---,0.03,VWS V14.01,2013-03-26 04:02:00,
2013-03-25 23:06:00,22.6,17.4,30.39,WNW,290,3.0,4.0,80,0.00,,---,0.03,VWS V14.01,2013-03-26 04:06:00,
2013-03-25 23:13:00,22.3,17.1,30.39,WNW,290,2.0,4.0,80,0.00,,---,0.03,VWS V14.01,2013-03-26 04:13:00,
2013-03-25 23:19:00,22.0,16.8,30.39,WNW,290,2.0,4.0,80,0.00,,---,0.03,VWS V14.01,2013-03-26 04:19:00,
2013-03-25 23:25:00,21.6,16.4,30.40,WNW,290,0.0,4.0,80,0.00,,---,0.03,VWS V14.01,2013-03-26 04:25:00,
2013-03-25 23:31:00,21.3,16.4,30.40,WNW,290,0.0,4.0,81,0.00,,---,0.03,VWS V14.01,2013-03-26 04:31:00,
2013-03-25 23:37:00,21.1,16.2,30.40,WNW,290,1.0,1.0,81,0.00,,---,0.03,VWS V14.01,2013-03-26 04:37:00,
2013-03-25 23:43:00,20.8,15.9,30.40,WNW,290,0.0,1.0,81,0.00,,---,0.03,VWS V14.01,2013-03-26 04:43:00,
2013-03-25 23:49:00,20.6,15.7,30.40,WNW,290,0.0,1.0,81,0.00,,---,0.03,VWS V14.01,2013-03-26 04:49:00,
2013-03-25 23:55:00,20.2,15.3,30.40,WNW,290,0.0,1.0,81,0.00,,---,0.03,VWS V14.01,2013-03-26 04:55:00,